VA3XLC Weather Reports


Display with metric or nautical units.
time (UTC)temp
F
wind
direction
speed
MPH
gust
MPH
rain 1hr
in
rain 24hr
in
rain mn
in
humidity
%
barometer
mb
20260831092503 67 170 1.0 2.0 0.00 0.00 0.00 97 984.9
20260831092002 67 137 1.0 1.0 0.00 0.00 0.00 97 984.9
20260831091502 67 133 1.0 1.0 0.00 0.00 0.00 97 984.9
20260831091000 67 126 1.0 2.0 0.00 0.00 0.00 97 985.0
20260831090500 67 151 0.0 1.0 0.00 0.00 0.00 97 984.9
20260831085439 67 166 1.0 2.0 0.00 0.00 0.00 97 984.9
20260831083856 67 0 0.0 0.0 0.00 0.00 0.00 97 985.0
20260831083356 67 156 1.0 2.0 0.00 0.00 0.00 97 985.0
20260831082856 67 131 1.0 1.0 0.00 0.00 0.00 97 985.0
20260831082356 67 162 1.0 1.0 0.00 0.00 0.00 97 985.0
20260831081855 67 146 2.0 2.0 0.00 0.00 0.00 97 985.0
20260831081355 67 118 1.0 2.0 0.00 0.00 0.00 97 985.0
20260831080855 67 124 1.0 1.0 0.00 0.00 0.00 97 985.0
20260831080355 66 0 0.0 0.0 0.00 0.00 0.00 97 985.0
20260831075854 66 149 1.0 2.0 0.00 0.00 0.00 96 984.9
20260831075354 66 131 1.0 2.0 0.00 0.00 0.00 96 984.9
20260831074853 66 157 2.0 2.0 0.00 0.00 0.00 96 984.9
20260831074353 66 140 2.0 3.0 0.00 0.00 0.00 96 985.0
20260831073853 66 150 1.0 2.0 0.00 0.00 0.00 96 985.0
20260831073353 66 172 1.0 3.0 0.00 0.00 0.00 96 985.0
20260831072852 66 157 2.0 2.0 0.00 0.00 0.00 96 985.1
20260831071831 66 245 1.0 2.0 0.00 0.00 0.00 96 985.3
20260831071331 66 150 1.0 2.0 0.00 0.00 0.00 96 985.2
20260831070831 66 168 1.0 2.0 0.00 0.00 0.00 96 985.2
20260831065809 66 166 2.0 3.0 0.00 0.00 0.00 96 985.3
20260831064748 66 0 0.0 0.0 0.00 0.00 0.00 96 985.4
20260831064247 66 318 0.0 1.0 0.00 0.00 0.00 96 985.5
20260831063747 66 156 2.0 3.0 0.00 0.00 0.00 96 985.3
20260831063247 66 157 2.0 3.0 0.00 0.00 0.00 96 985.4
20260831062747 65 139 1.0 1.0 0.00 0.00 0.00 96 985.5
20260831062247 65 130 1.0 2.0 0.00 0.00 0.00 96 985.5
20260831061746 65 147 1.0 1.0 0.00 0.00 0.00 96 985.5
20260831060725 65 134 1.0 2.0 0.00 0.00 0.00 96 985.6
20260831060225 65 154 1.0 2.0 0.00 0.00 0.00 96 985.6
20260831055724 65 0 0.0 0.0 0.00 0.00 0.00 96 985.6
20260831055224 65 0 0.0 0.0 0.00 0.00 0.00 95 985.6
20260831054203 65 131 1.0 2.0 0.00 0.00 0.00 95 985.7
20260831053702 64 123 2.0 2.0 0.00 0.00 0.00 95 985.6
20260831052641 64 173 1.0 2.0 0.00 0.00 0.00 96 985.6
20260831052141 64 117 1.0 1.0 0.00 0.00 0.00 96 985.6
20260831051641 64 72 1.0 1.0 0.00 0.00 0.00 96 985.7
20260831051140 64 0 0.0 0.0 0.00 0.00 0.00 96 985.7
20260831050640 64 189 1.0 2.0 0.00 0.00 0.00 96 985.7
20260831050140 64 144 1.0 2.0 0.00 0.00 0.00 96 985.7
20260831045639 64 0 0.0 0.0 0.00 0.00 0.00 96 985.7
20260831045139 64 0 0.0 0.0 0.00 0.00 0.00 96 985.7
20260831044639 64 0 0.0 0.0 0.00 0.00 0.00 96 985.7
20260831044138 64 0 0.0 0.0 0.00 0.00 0.00 96 985.6
20260831043638 64 0 0.0 0.0 0.00 0.00 0.00 96 985.6
20260831043138 64 154 1.0 2.0 0.00 0.00 0.00 96 985.5
20260831042638 63 0 0.0 0.0 0.00 0.00 0.00 96 985.5
20260831042138 63 0 0.0 0.0 0.00 0.00 0.00 96 985.5
20260831041637 63 155 1.0 1.0 0.00 0.00 0.00 96 985.4
20260831041137 63 138 0.0 1.0 0.00 0.00 0.00 96 985.4
20260831040637 63 0 0.0 0.0 0.00 0.00 0.00 96 985.4
20260831035615 63 0 0.0 0.0 0.00 0.00 0.00 96 985.5
20260831035115 63 145 1.0 1.0 0.00 0.00 0.00 96 985.5
20260831034615 63 52 1.0 1.0 0.00 0.00 0.00 95 985.5
20260831034115 63 135 1.0 1.0 0.00 0.00 0.00 96 985.5
20260831033053 63 126 1.0 2.0 0.00 0.00 0.00 96 985.4
20260831032553 63 173 1.0 1.0 0.00 0.00 0.00 96 985.4
20260831031532 63 0 0.0 0.0 0.00 0.00 0.00 96 985.4
20260831025426 63 134 2.0 2.0 0.00 0.00 0.00 96 985.5
20260831024404 63 197 1.0 1.0 0.00 0.00 0.00 96 985.4
20260831023343 63 147 1.0 2.0 0.00 0.00 0.00 96 985.5
20260831022842 63 65 2.0 2.0 0.00 0.00 0.00 96 985.5
20260831022342 63 169 2.0 4.0 0.00 0.00 0.00 96 985.5
20260831021841 63 161 3.0 4.0 0.00 0.00 0.00 96 985.6
20260831021341 63 352 1.0 2.0 0.00 0.00 0.00 96 985.6
20260831020840 63 127 1.0 2.0 0.00 0.00 0.00 96 985.7
20260831020340 64 270 1.0 2.0 0.00 0.00 0.00 96 985.7
20260831015839 64 174 4.0 4.0 0.00 0.00 0.00 96 985.8
20260831015339 64 89 3.0 3.0 0.00 0.00 0.00 96 985.9
20260831014839 64 299 1.0 2.0 0.00 0.00 0.00 96 985.9
20260831014339 64 202 3.0 5.0 0.00 0.00 0.00 96 986.0
20260831013838 64 237 2.0 4.0 0.00 0.00 0.00 96 986.2
20260831013338 64 240 3.0 7.0 0.00 0.00 0.00 95 986.4
20260831012837 64 261 2.0 4.0 0.00 0.00 0.00 95 986.5
20260831012337 65 311 1.0 2.0 0.00 0.00 0.00 95 986.5
20260831011837 65 227 2.0 4.0 0.00 0.00 0.00 95 986.5
20260831011337 65 266 3.0 7.0 0.00 0.00 0.00 96 986.8
20260831010836 65 261 5.0 6.0 0.00 0.00 0.00 96 986.7
20260831010336 65 156 2.0 3.0 0.00 0.00 0.00 96 986.7
20260831005314 66 284 1.0 2.0 0.00 0.00 0.00 96 986.3
20260831003731 66 217 2.0 3.0 0.00 0.00 0.00 97 986.4
20260831002710 66 214 2.0 4.0 0.00 0.00 0.00 97 986.4
20260831002210 66 249 2.0 3.0 0.00 0.00 0.00 97 986.5
20260831001709 66 250 2.0 4.0 0.00 0.00 0.00 97 986.6
20260831001209 66 216 2.0 3.0 0.00 0.00 0.00 97 986.6
20260831000709 66 0 0.0 0.0 0.00 0.00 0.00 96 986.8
20260831000211 66 252 2.0 3.0 0.00 0.00 0.00 96 986.8
20260830235708 66 265 2.0 4.0 0.00 0.00 0.00 96 986.7
20260830235208 66 280 1.0 2.0 0.00 0.00 0.00 96 986.7
20260830234708 66 162 1.0 2.0 0.00 0.00 0.00 96 986.7
20260830234208 66 250 1.0 3.0 0.00 0.00 0.00 96 986.9
20260830233708 66 278 1.0 2.0 0.00 0.00 0.00 96 987.0
20260830233207 66 340 1.0 2.0 0.00 0.00 0.00 96 986.9
20260830232707 66 258 2.0 4.0 0.00 0.00 0.00 96 986.9
20260830232207 66 246 2.0 4.0 0.00 0.00 0.00 96 986.9
20260830231707 66 252 3.0 5.0 0.00 0.00 0.00 96 987.0
20260830231206 66 208 1.0 2.0 0.00 0.00 0.00 96 986.9
20260830230706 66 220 1.0 2.0 0.00 0.00 0.00 96 986.9
20260830230205 66 261 3.0 5.0 0.00 0.00 0.00 96 986.8
20260830225705 66 239 1.0 3.0 0.00 0.00 0.00 96 986.8
20260830225204 66 185 0.0 1.0 0.00 0.00 0.00 96 986.6
20260830224142 66 242 2.0 3.0 0.00 0.00 0.00 96 986.6
20260830223642 66 285 2.0 3.0 0.00 0.00 0.00 96 986.3
20260830223142 67 255 2.0 3.0 0.00 0.00 0.00 96 986.2
20260830222642 67 179 2.0 3.0 0.00 0.00 0.00 96 986.2
20260830222141 67 259 1.0 2.0 0.00 0.00 0.00 96 986.1
20260830221641 67 155 1.0 2.0 0.00 0.00 0.00 96 986.0
20260830221141 67 281 1.0 1.0 0.00 0.00 0.00 96 985.9
20260830220641 67 260 1.0 3.0 0.00 0.00 0.00 96 985.9
20260830220141 67 0 0.0 0.0 0.00 0.00 0.00 96 985.7
20260830215641 67 165 2.0 3.0 0.00 0.00 0.00 96 985.6
20260830215140 67 160 2.0 3.0 0.00 0.00 0.00 96 985.7
20260830214640 67 165 1.0 2.0 0.00 0.00 0.00 96 985.8
20260830214140 67 181 1.0 2.0 0.00 0.00 0.00 96 985.9
20260830213639 67 62 1.0 1.0 0.00 0.00 0.00 96 985.9
20260830213139 67 0 0.0 0.0 0.00 0.00 0.00 96 985.9
20260830212639 66 279 1.0 2.0 0.00 0.00 0.00 96 985.9
20260830212139 66 244 2.0 3.0 0.00 0.00 0.00 96 985.9
20260830211639 66 188 1.0 2.0 0.00 0.00 0.00 96 986.1
20260830211138 66 0 0.0 0.0 0.00 0.00 0.00 96 986.0
20260830210116 66 148 2.0 3.0 0.00 0.00 0.00 96 986.1
20260830205616 66 155 2.0 4.0 0.00 0.00 0.00 96 986.0
20260830205115 66 160 2.0 4.0 0.00 0.00 0.00 96 986.1
20260830204615 66 240 2.0 4.0 0.00 0.00 0.00 96 986.1
20260830203553 66 180 1.0 2.0 0.00 0.00 0.00 96 986.1
20260830203053 65 245 1.0 2.0 0.00 0.00 0.00 96 986.1
20260830202032 65 261 2.0 3.0 0.00 0.00 0.00 96 986.2
20260830201010 65 76 1.0 3.0 0.00 0.00 0.00 96 986.0
20260830200510 64 154 2.0 4.0 0.00 0.00 0.00 96 986.2
20260830200010 64 207 1.0 1.0 0.00 0.00 0.00 96 986.3
20260830194948 64 154 3.0 4.0 0.00 0.00 0.00 97 986.2
20260830194448 64 158 3.0 4.0 0.00 0.00 0.00 96 986.2
20260830193948 64 158 1.0 3.0 0.00 0.00 0.00 96 986.4
20260830193448 64 349 2.0 3.0 0.00 0.00 0.00 96 986.5
20260830192947 64 152 2.0 2.0 0.00 0.00 0.00 96 986.4
20260830192447 64 150 2.0 3.0 0.00 0.00 0.00 96 986.6
20260830191426 64 44 1.0 2.0 0.00 0.00 0.00 95 986.7
20260830190925 64 90 2.0 3.0 0.00 0.00 0.00 95 986.7
20260830190425 64 107 3.0 3.0 0.00 0.00 0.00 95 986.7
20260830185925 64 125 1.0 1.0 0.00 0.00 0.00 95 986.7
20260830184903 64 151 2.0 3.0 0.00 0.00 0.00 95 986.7
20260830183841 64 131 1.0 3.0 0.00 0.00 0.00 95 986.8
20260830183341 64 0 0.0 0.0 0.00 0.00 0.00 94 986.9
20260830182841 64 139 1.0 2.0 0.00 0.00 0.00 94 986.9
20260830182341 65 151 1.0 2.0 0.00 0.00 0.00 94 986.9
20260830181840 65 158 1.0 2.0 0.00 0.00 0.00 95 987.0
20260830181340 65 252 1.0 2.0 0.00 0.00 0.00 94 987.0
20260830180839 65 198 2.0 4.0 0.00 0.00 0.00 94 986.9
20260830180339 65 154 2.0 2.0 0.00 0.00 0.00 94 987.0
20260830175839 65 0 0.0 0.0 0.00 0.00 0.00 94 987.1
20260830174256 66 0 0.0 0.0 0.00 0.00 0.00 94 987.1
20260830173756 66 0 0.0 0.0 0.00 0.00 0.00 95 987.0
20260830173256 65 245 2.0 3.0 0.00 0.00 0.00 95 987.0
20260830172756 66 241 1.0 2.0 0.00 0.00 0.00 94 987.1
20260830172255 66 0 0.0 0.0 0.00 0.00 0.00 95 987.2
20260830171755 66 271 2.0 3.0 0.00 0.00 0.00 94 987.2
20260830171255 66 202 2.0 3.0 0.00 0.00 0.00 94 987.4
20260830170755 66 273 2.0 3.0 0.00 0.00 0.00 94 987.5
20260830170254 66 308 2.0 3.0 0.00 0.00 0.00 94 987.4
20260830165754 66 265 2.0 4.0 0.00 0.00 0.00 94 987.2
20260830165254 66 0 0.0 0.0 0.00 0.00 0.00 94 987.3
20260830164754 67 298 1.0 2.0 0.00 0.00 0.00 94 987.4
20260830164254 67 0 0.0 0.0 0.00 0.00 0.00 94 987.6
20260830163753 67 265 1.0 2.0 0.00 0.00 0.00 94 987.6
20260830163253 67 272 1.0 1.0 0.00 0.00 0.00 94 987.6
20260830162753 67 0 0.0 0.0 0.00 0.00 0.00 94 987.6
20260830160128 67 152 2.0 3.0 0.00 0.00 0.00 94 987.5
20260830155628 66 0 0.0 0.0 0.00 0.00 0.00 95 987.4
20260830155127 66 161 1.0 2.0 0.00 0.00 0.00 95 987.5
20260830154627 66 173 1.0 3.0 0.00 0.00 0.00 94 987.5
20260830154127 66 148 1.0 2.0 0.00 0.00 0.00 95 987.3
20260830153106 66 127 2.0 3.0 0.00 0.00 0.00 95 987.4
20260830152606 65 161 2.0 3.0 0.00 0.00 0.00 95 987.5
20260830152105 65 156 3.0 4.0 0.00 0.00 0.00 95 987.5
20260830151605 65 171 1.0 3.0 0.00 0.00 0.00 95 987.5
20260830151105 65 161 3.0 4.0 0.00 0.00 0.00 94 987.5
20260830150605 65 164 3.0 4.0 0.00 0.00 0.00 95 987.4
20260830150104 65 163 2.0 4.0 0.00 0.00 0.00 95 987.5
20260830145604 65 146 2.0 3.0 0.00 0.00 0.00 95 987.5
20260830145104 65 156 1.0 2.0 0.00 0.00 0.00 95 987.5
20260830144042 65 159 1.0 2.0 0.00 0.00 0.00 95 987.4
20260830143542 65 162 2.0 4.0 0.00 0.00 0.00 95 987.3
20260830142521 65 165 1.0 2.0 0.00 0.00 0.00 95 987.4
20260830142021 65 119 2.0 3.0 0.00 0.00 0.00 95 987.4
20260830140959 65 146 2.0 3.0 0.00 0.00 0.00 95 987.5
20260830140459 65 111 2.0 3.0 0.00 0.00 0.00 95 987.7
20260830135959 65 140 2.0 3.0 0.00 0.00 0.00 95 987.7
20260830135459 65 0 0.0 0.0 0.00 0.00 0.00 95 987.9
20260830134958 65 53 2.0 3.0 0.00 0.00 0.00 95 987.8
20260830133937 65 92 2.0 3.0 0.00 0.00 0.00 95 987.7
20260830133437 65 99 1.0 1.0 0.00 0.00 0.00 95 987.8
20260830132936 65 106 3.0 4.0 0.00 0.00 0.00 95 987.7
20260830131915 65 57 2.0 3.0 0.00 0.00 0.00 94 987.5
20260830131414 65 101 3.0 3.0 0.00 0.00 0.00 94 987.4
20260830130914 65 93 1.0 3.0 0.00 0.00 0.00 94 987.4
20260830130413 65 114 1.0 2.0 0.00 0.00 0.00 94 987.4
20260830125913 65 46 1.0 2.0 0.00 0.00 0.00 94 987.4
20260830124331 66 29 1.0 2.0 0.00 0.00 0.00 94 987.4
20260830123830 66 51 2.0 4.0 0.00 0.00 0.00 94 987.3
20260830123329 66 66 2.0 5.0 0.00 0.00 0.00 94 987.3
20260830122307 66 74 1.0 2.0 0.00 0.00 0.00 94 987.0
20260830121807 66 32 2.0 6.0 0.00 0.00 0.00 94 986.9
20260830121306 66 109 2.0 5.0 0.00 0.00 0.00 94 986.9
20260830120806 66 0 0.0 0.0 0.00 0.00 0.00 94 986.8
20260830120306 67 132 1.0 2.0 0.00 0.00 0.00 94 986.7
20260830115806 67 42 2.0 4.0 0.00 0.00 0.00 93 986.8
20260830115306 67 42 1.0 2.0 0.00 0.00 0.00 93 986.6
20260830114805 67 76 1.0 2.0 0.00 0.00 0.00 93 986.6
20260830113744 67 0 0.0 0.0 0.00 0.00 0.00 93 986.7
20260830113244 67 84 2.0 3.0 0.00 0.00 0.00 93 986.6
20260830112744 67 117 2.0 3.0 0.00 0.00 0.00 93 986.7
20260830112243 67 64 1.0 3.0 0.00 0.00 0.00 93 986.6
20260830111742 67 344 1.0 2.0 0.00 0.00 0.00 93 986.7
20260830111242 67 343 1.0 2.0 0.00 0.00 0.00 93 986.6
20260830110742 67 357 2.0 3.0 0.00 0.00 0.00 93 986.6
20260830110242 67 0 0.0 0.0 0.00 0.00 0.00 93 986.5
20260830105742 67 0 0.0 0.0 0.00 0.00 0.00 93 986.5
20260830105241 67 31 1.0 2.0 0.00 0.00 0.00 93 986.5
20260830104220 67 307 1.0 2.0 0.00 0.00 0.00 93 986.5
20260830103720 67 0 0.0 0.0 0.00 0.00 0.00 93 986.3
20260830103220 67 0 0.0 0.0 0.00 0.00 0.00 93 986.4
20260830102719 67 44 1.0 2.0 0.00 0.00 0.00 93 986.4
20260830102219 67 76 2.0 2.0 0.00 0.00 0.00 93 986.6
20260830101719 68 303 1.0 2.0 0.00 0.00 0.00 93 986.7
20260830101219 68 353 2.0 3.0 0.00 0.00 0.00 93 986.8
20260830100718 68 329 2.0 3.0 0.00 0.00 0.00 93 986.8
20260830095657 68 10 2.0 3.0 0.00 0.00 0.00 93 986.7
20260830095157 68 0 0.0 0.0 0.00 0.00 0.00 93 986.7
20260830094135 67 0 0.0 0.0 0.00 0.00 0.00 94 986.6
20260830093635 67 0 0.0 0.0 0.00 0.00 0.00 94 986.6
20260830093135 67 0 0.0 0.0 0.00 0.00 0.00 94 986.6